Location: Beetenbrück
(52.8113°N, 9.5946°E)
Time: 15:05:16
(UTC+00:00)

Daily predictions for brighter satellites

Satellite Brightness Start Highest point End
(mag) Time Altitude Azimuth Time Altitude Azimuth Time Altitude Azimuth
Cosmos 1898 Rocket 3.5 18:48:06 10° SSW 18:53:20 84° ESE 18:58:34 10° NNE
COBE Rocket 4.0 18:49:20 10° NNE 18:54:19 88° WNW 18:59:23 10° SSW
Cosmos 2074 Rocket 4.1 18:49:42 10° S 18:55:57 87° W 19:02:17 10° N
MOS 1 4.5 18:50:53 10° SE 18:56:23 57° ENE 19:01:55 10° N
COSMO-SKYMED 1 4.3 18:53:38 10° N 18:57:27 37° WNW 19:01:14 10° SW
Cosmos 2278 Rocket 2.6 18:53:32 10° NNW 18:59:05 51° NE 19:04:36 10° SE
NOSS 2-3 (C) 4.2 18:54:53 10° NW 18:59:38 86° SW 19:06:15 10° SE
CZ-4B R/B 3.5 18:54:44 10° SE 19:00:08 54° ENE 19:05:37 10° N
CZ-4B DEB 4.2 18:54:58 10° SSE 19:00:23 71° ENE 19:05:52 10° NNW
Cosmos 1703 Rocket 3.6 18:56:19 10° NNW 19:00:40 86° WSW 19:04:58 10° S
COSMOS 2428 3.3 18:55:41 10° S 19:00:45 34° ESE 19:05:52 10° NE
NOSS 2-3 (D) 4.4 18:58:33 10° NW 19:03:23 70° SW 19:09:51 10° SE
NOSS 2-1 (D) 4.5 19:00:57 10° NNW 19:03:31 24° NNE 19:06:27 10° E
SL-8 Rocket 4.5 18:59:50 10° SSE 19:05:36 41° E 19:11:27 10° NNE
Cosmos 1470 Rocket 3.7 19:01:24 10° SSW 19:05:46 79° WNW 19:10:08 10° N
Cosmos 1680 Rocket 3.6 19:00:46 10° NNW 19:06:00 81° WSW 19:11:11 10° SSE
USA 234 3.4 19:01:51 10° ENE 19:08:16 54° SE 19:14:40 10° SW
ADEOS 3.7 19:04:38 10° SE 19:09:44 58° ENE 19:14:52 10° N
Cosmos 1937 Rocket 3.5 19:04:38 10° SSW 19:09:56 86° ESE 19:15:15 10° NNE
Cosmos 1943 Rocket 2.3 19:04:52 10° NNW 19:10:34 69° NE 19:16:12 10° SE
PAYLOAD B 4.2 19:07:01 10° SSE 19:12:30 77° ENE 19:18:01 10° NNW
Cosmos 1933 Rocket 3.6 19:08:53 10° S 19:13:11 60° E 19:17:33 10° NNE
Cosmos 2333 Rocket 3.7 19:08:28 10° WSW 19:13:50 42° NW 19:19:13 10° NNE
USA 238 DEB 4.1 19:07:18 10° NW 19:14:29 71° NE 19:22:04 11° ESE
USA 238 4.1 19:07:29 10° NW 19:14:40 70° NE 19:22:14 11° ESE
Cosmos 2366 rocket 4.3 19:11:50 10° SSE 19:17:37 45° E 19:23:25 10° NNE
Terra 1.8 19:15:42 10° SSE 19:20:21 69° ENE 19:25:03 10° N
Cosmos 1733 Rocket 4.1 19:20:37 10° SE 19:24:13 26° E 19:27:50 10° NNE
Cosmos 2112 Rocket 4.3 19:19:49 10° NNW 19:25:01 69° WSW 19:30:09 10° SSE
In-Cosmos 22 Rocket 4.1 19:21:07 10° NNW 19:26:30 88° ENE 19:31:49 10° SSE
Helios 1A Rocket 2.2 19:23:31 10° NNE 19:26:47 80° ESE 19:29:59 10° SSW
Aureole 3 4.4 19:23:20 10° N 19:27:19 37° ENE 19:31:22 13° SE
Meteor 1-31 Rocket 3.6 19:24:32 10° S 19:27:55 45° W 19:31:21 10° NNW
Lacrosse 5 rocket 0.5 19:26:47 10° SW 19:29:58 70° SSE 19:33:08 10° ENE
Ariane Rocket 4.2 19:29:37 13° ESE 19:33:03 26° ENE 19:37:12 10° N
SL-08 R/B 3.7 19:30:19 10° NNE 19:35:02 46° E 19:39:45 10° S
Geosat 4.1 19:30:54 10° NE 19:35:49 53° ESE 19:40:42 10° SSW
ERS-1 Rocket 3.1 19:32:44 10° S 19:37:44 78° WSW 19:42:46 10° NNW
Cosmos 614 Rocket 4.4 19:34:08 10° NNW 19:39:12 49° ENE 19:42:57 17° SE
Spot 2 Rocket 3.6 19:36:27 12° SSE 19:40:57 62° ENE 19:45:56 10° N
Cosmos 2360 Rocket 3.7 19:35:42 10° WSW 19:41:01 41° NW 19:46:23 10° NNE
Cosmos 1025 Rocket 4.1 19:39:26 10° N 19:43:07 28° ENE 19:45:14 19° ESE
Cosmos 1869 Rocket 3.5 19:38:52 10° S 19:43:15 85° E 19:47:42 10° NNE
Okean-O 2.7 19:42:53 15° SSE 19:46:23 62° ENE 19:50:43 10° N
USA 186 1.1 19:46:03 36° ESE 19:46:31 45° ENE 19:48:40 10° N
SeaSat 1 4.2 19:43:07 10° E 19:46:48 22° NE 19:50:29 10° NNW
ATLAS 5 CENTAUR R/B 3.7 19:44:42 10° NW 19:46:50 16° N 19:49:11 10° NE
Cosmos 2218 Rocket 4.0 19:41:15 10° S 19:47:18 65° E 19:53:24 10° NNE
Meteor 1-11 4.2 19:41:55 10° N 19:47:27 63° ENE 19:51:55 16° SSE
Cosmos 2322 Rocket 4.0 19:46:13 10° WSW 19:51:18 34° NW 19:56:25 10° NNE
Cosmos 1400 Rocket 3.5 19:52:31 24° SE 19:53:38 29° E 19:56:47 10° NNE
CZ-4 R/B 3.1 19:51:08 10° SSW 19:54:29 29° W 19:57:48 10° NNW
ATLAS 3B R/B 4.0 19:47:07 10° W 19:54:39 49° NNW 20:02:17 10° NE
CZ-4B R/B 3.3 19:53:29 24° ESE 19:55:03 36° ENE 19:58:16 10° N
Cosmos 1821 Rocket 4.1 19:50:11 10° S 19:56:15 57° E 20:02:26 10° NNE
CZ-4B R/B 3.9 19:53:37 20° SE 19:56:32 43° ENE 20:01:03 10° N
USA 32 4.0 19:51:53 10° S 19:57:03 66° E 20:02:15 10° NNE
CZ-2C R/B 3.5 19:57:01 22° E 19:57:31 23° ENE 19:59:54 10° N
NOSS 3-4 (A) 3.6 19:53:54 10° S 19:58:45 38° ESE 20:04:03 10° NE
NOSS 3-4 (C) 3.6 19:54:24 10° S 19:59:15 38° ESE 20:04:36 10° NE
ARIANE 6 FM1 Upper Stage 4.1 19:56:58 10° W 20:00:48 38° NNW 20:04:35 10° NE
Cosmos 2237 Rocket 2.5 19:58:15 10° S 20:03:35 43° ESE 20:08:58 10° NE
ASTEX 1 3.5 20:00:49 20° SSE 20:04:04 57° ENE 20:08:54 10° N
Cosmos 1980 3.9 19:59:20 10° S 20:04:42 47° ESE 20:10:06 10° NE
Okean O Rocket 1.6 20:02:15 17° SSE 20:05:35 85° WSW 20:09:56 10° NNW
NOSS 3-1 (C) 4.5 20:00:44 10° NW 20:06:44 46° NNE 20:13:20 14° E
USA 245 3.8 20:04:32 25° SE 20:06:52 58° ENE 20:11:50 10° N
Cosmos 2242 Rocket 3.6 20:03:17 10° NNW 20:07:49 88° W 20:11:02 19° S
Cosmos 2322 3.9 20:06:29 10° SW 20:12:12 77° WNW 20:17:59 10° NNE
Cosmos 1346 Rocket 3.1 20:09:11 10° N 20:12:39 42° ENE 20:13:38 33° ESE
Cosmos 1048 Rocket 4.4 20:07:58 10° NNW 20:12:59 57° WSW 20:16:57 16° S
Timation 2 Rocket 4.3 20:08:34 10° NW 20:14:46 66° WSW 20:19:36 19° SSE
Cosmos 2219 Rocket 3.8 20:10:18 10° WSW 20:15:27 37° NW 20:20:39 10° NNE
RESURS DK-1 3.6 20:17:16 22° E 20:17:16 22° E 20:19:31 10° NE
Meteor 2-21 Rocket 4.4 20:15:29 10° N 20:21:37 80° ENE 20:25:46 22° SSE
USA 59 Rocket -0.6 20:19:29 10° NW 20:22:41 88° SW 20:23:57 40° SE
Cosmos 1674 Rocket 3.4 20:19:53 10° N 20:24:13 74° ENE 20:26:07 33° SSE
NOSS 0 Rocket 3.9 20:21:07 10° SSW 20:27:22 84° ESE 20:33:38 10° NE
Cosmos 1908 Rocket 4.2 20:28:52 33° ESE 20:29:27 34° E 20:33:23 10° NNE
Cosmos 405 Rocket 4.2 20:28:48 10° NNE 20:30:21 16° NE 20:30:21 16° NE
Cosmos 2369 Rocket 2.9 20:26:50 10° NNW 20:32:11 43° NE 20:34:53 26° ESE
NOSS 8 (A) 3.9 20:31:07 10° NW 20:34:00 71° SW 20:34:10 68° SSW
Cosmos 1125 Rocket 3.4 20:35:02 18° S 20:38:51 63° ESE 20:44:04 10° NNE
Cosmos 1378 Rocket 4.1 20:37:40 10° NNW 20:41:58 54° W 20:44:26 24° SSW
Cosmos 2278 Rocket 3.3 20:37:51 10° NW 20:43:02 37° WSW 20:46:52 17° SSW
Cosmos 1656 Rocket 3.5 20:38:12 10° NNW 20:43:41 85° ENE 20:45:59 37° SE
IRS-1C Rocket 4.0 20:42:16 33° SSE 20:44:46 88° ENE 20:50:06 10° NNW
COSMOS 2428 3.4 20:39:10 10° SW 20:44:47 55° NW 20:50:27 10° NNE
NOSS 2-1 (E) 2.9 20:46:03 10° NW 20:49:17 78° SW 20:49:42 66° SSE
SL-08 R/B 4.4 20:47:22 29° S 20:50:38 67° E 20:56:43 10° NNE
USA 234 3.4 20:44:58 10° ENE 20:51:32 78° NNW 20:58:05 10° WSW
NOSS 2-1 (C) 3.1 20:48:50 10° NW 20:52:02 66° SW 20:52:23 60° S
NOSS 2-1 (D) 3.2 20:49:08 10° NW 20:52:20 57° SW 20:52:43 54° SSW
Cosmos 2221 Rocket 3.4 20:48:13 10° N 20:52:38 85° E 20:53:49 49° SSE
Cosmos 1943 Rocket 3.9 20:49:13 10° NW 20:53:50 26° WSW 20:57:58 12° SSW
Meteor 2-8 Rocket 4.3 20:51:23 22° S 20:55:31 86° E 21:01:37 10° NNE
DNEPR-1 R/B 3.5 20:53:27 10° SW 20:57:39 80° NW 21:02:11 10° NE
Terra 4.1 20:55:03 10° SW 20:58:22 19° W 21:01:42 10° NW
Cosmos 1727 Rocket 4.5 20:52:23 10° NNW 20:58:38 59° W 21:02:58 20° SSW
Cosmos 1733 Rocket 4.2 20:57:31 10° SW 21:01:39 42° WNW 21:05:51 10° N
Lacrosse 5 rocket 1.9 21:03:41 10° W 21:06:45 41° N 21:07:35 33° NNE
SPOT 3 Rocket 4.1 21:05:45 28° SSW 21:08:14 52° W 21:13:20 10° NNW
Cosmos 2150 Rocket 4.4 21:08:39 41° ESE 21:08:39 41° ESE 21:13:27 10° NE
Cosmos 2292 Rocket 4.4 21:03:19 10° NNW 21:08:41 53° W 21:10:32 32° SSW
COSMOS 2455 4.0 21:03:24 10° NW 21:08:55 35° NNE 21:12:30 19° E
Ariane Rocket 3.3 21:09:41 36° SSW 21:11:37 60° WSW 21:16:36 10° NNW
Cosmos 2058 3.8 21:08:27 10° N 21:11:48 32° ENE 21:11:48 32° ENE
SL-16 R/B 2.5 21:13:28 44° ESE 21:13:47 44° ESE 21:19:08 10° NE
Cosmos 1315 Rocket 4.3 21:15:21 23° ENE 21:15:21 23° ENE 21:17:18 10° NNE
BREEZE-M DEB (TANK) 3.6 21:11:57 10° W 21:15:08 40° SSW 21:15:20 40° S
Cosmos 1300 Rocket 3.4 21:19:25 65° E 21:19:25 65° E 21:23:38 10° NNE
Cosmos 1025 Rocket 4.1 21:16:43 10° NNW 21:20:38 37° W 21:21:59 29° SW
TSX-5 4.3 21:16:17 10° SW 21:21:09 69° NW 21:25:10 10° NNE
Helios 1A 3.9 21:17:30 10° NNE 21:20:14 32° ENE 21:20:14 32° ENE
SeaSat 1 2.4 21:22:34 56° SE 21:23:34 77° NE 21:28:29 10° NNW
Molniya-1 3.5 21:25:24 65° SSW 21:25:55 81° SE 21:33:35 10° NE
Cosmos 2084 Rocket 3.2 21:25:38 70° WSW 21:26:06 85° NW 21:30:15 10° NE
Cosmos 1869 3.6 21:27:11 53° NNE 21:27:11 53° NNE 21:29:59 10° NNE
Helios 1B rocket 2.8 21:27:53 44° NNE 21:27:53 44° NNE 21:30:40 10° N
CZ-2C R/B 4.2 21:28:50 22° W 21:28:50 22° W 21:30:50 10° NW
Cosmos 1934 Rocket 4.0 21:26:34 35° SSW 21:29:28 85° W 21:35:45 10° N
ATLAS 5 CENTAUR R/B 3.4 21:27:07 10° NNW 21:30:04 22° NNE 21:32:14 15° ENE
Cosmos 2123 Rocket 4.4 21:26:56 10° NNW 21:33:03 58° W 21:35:50 32° SSW
BREEZE-M DEB (TANK) 3.5 21:31:36 10° W 21:47:08 - ESE 21:33:55 49° SW
Cosmos 407 Rocket 4.3 21:32:08 10° NNW 21:36:57 38° NE 21:38:02 34° E
Okean O Rocket 4.2 21:40:40 10° WSW 21:42:27 12° W 21:44:13 10° WNW
Cosmos 1140 Rocket 3.4 21:38:21 10° NNW 21:43:33 73° ENE 21:44:08 65° ESE
ATLAS 3B R/B 4.4 21:39:56 10° WNW 21:47:11 37° N 21:54:18 10° ENE
Cosmos 2237 Rocket 3.3 21:42:13 10° WSW 21:47:40 45° NW 21:53:09 10° NNE
Cosmos 967 Rocket 4.4 21:41:54 10° NW 21:48:24 82° SW 21:49:57 55° SSE
NOSS 3-4 (A) 3.8 21:43:58 10° WSW 21:49:19 59° NW 21:55:24 10° NE
Cosmos 1975 Rocket 3.0 21:45:03 10° NNW 21:49:30 78° W 21:49:30 78° W
Cosmos 1356 Rocket 4.3 21:50:41 38° NE 21:50:41 38° NE 21:53:30 10° NNE
NOSS 3-4 (C) 3.7 21:44:26 10° WSW 21:49:49 59° NW 21:55:56 10° NE
RESURS DK-1 3.3 21:52:25 36° W 21:53:24 45° NW 21:57:14 10° NNE
ALOS 2 3.5 21:54:36 37° ENE 21:54:36 37° ENE 21:58:34 10° N
Cosmos 2297 3.7 21:50:35 10° NW 21:56:19 68° WSW 21:57:09 59° SSW
Cosmos 2285 Rocket 3.9 21:55:14 43° SSW 21:57:34 89° WNW 22:03:57 10° NNE
NOSS 3-1 (C) 3.9 21:51:18 10° NW 21:58:04 79° SW 22:00:38 48° SSE
Cosmos 1535 Rocket 4.4 21:56:51 51° SSW 21:58:32 83° W 22:04:43 10° N
Cosmos 1862 4.1 21:56:59 10° NNW 21:59:38 45° NNW 21:59:38 45° NNW
Cosmos 2298 Rocket 3.9 22:01:04 66° SSW 22:01:51 87° WNW 22:07:13 10° NNE
Cosmos 1605 Rocket 3.9 22:01:45 53° SSW 22:03:19 82° W 22:09:29 10° N
ARIANE 5 R/B 3.0 22:04:06 52° NE 22:04:06 52° NE 22:07:59 10° N
USA 59 Rocket 2.4 22:09:19 10° W 22:09:29 10° W 22:09:29 10° W
Spot 4 3.9 22:11:13 63° ENE 22:11:13 63° ENE 22:15:51 10° N
Cosmos 1782 Rocket 4.3 22:15:49 44° W 22:16:02 44° WNW 22:20:11 10° N
Cosmos 2369 Rocket 2.7 22:10:57 10° NW 22:16:15 45° WSW 22:16:39 44° WSW
SJ 16-02 2.3 22:14:45 10° NNW 22:18:30 39° NE 22:18:30 39° NE
Cosmos 2173 Rocket 4.1 22:22:38 55° ESE 22:23:03 56° E 22:29:00 10° NNE
MetOp-A 4.4 22:27:00 47° ENE 22:27:10 48° ENE 22:32:03 10° N
Cosmos 1269 Rocket 4.3 22:26:25 10° NNW 22:31:31 55° WSW 22:31:31 55° WSW
Cosmos 2100 Rocket 3.9 22:32:22 64° SE 22:32:55 67° E 22:39:03 10° NNE
Cosmos 1943 3.2 22:34:22 67° E 22:34:22 67° E 22:39:47 10° NE
USA 234 3.6 22:27:53 10° E 22:34:19 63° N 22:40:46 10° WNW
Cosmos 921 Rocket 3.7 22:30:25 10° NNW 22:34:00 50° WNW 22:34:00 50° WNW
Lacrosse 5 rocket 3.8 22:40:43 10° WNW 22:40:53 11° WNW 22:40:53 11° WNW
CZ-2C R/B 3.3 22:44:49 43° E 22:45:37 45° ENE 22:50:50 10° N
Cosmos 1980 Rocket 4.5 22:43:35 10° NNW 22:47:48 20° NNE 22:51:59 10° ENE
Cosmos 1315 Rocket 4.5 22:50:01 27° NW 22:50:01 27° NW 22:52:51 10° N
Cosmos 304 Rocket 4.0 22:46:07 10° NNW 22:50:11 62° NW 22:50:11 62° NW
NOSS 3-1 (A) 3.8 22:44:43 10° NW 22:51:34 78° SW 22:53:31 55° SSE
Cosmos 44 3.7 22:54:23 60° W 22:55:01 66° NW 23:00:23 10° NE
COSMOS 2455 2.7 22:49:21 10° NW 22:55:24 77° SW 22:55:37 76° SSW
SL-16 R/B 3.1 22:55:15 27° WSW 22:57:55 44° NW 23:03:22 10° NNE
Cosmos 2251 Rocket 3.5 22:54:19 10° NNW 22:59:40 77° ENE 22:59:40 77° ENE
Cosmos 1536 Rocket 4.4 22:56:04 10° NNW 22:59:19 44° NW 22:59:19 44° NW
SeaSat 1 4.2 23:02:11 21° W 23:02:11 21° W 23:05:10 10° NW
Cosmos 1954 Rocket 4.1 22:57:16 10° NNW 23:02:32 66° ENE 23:02:37 65° ENE
Cosmos 2151 Rocket 4.1 23:04:57 56° NNW 23:04:57 56° NNW 23:08:31 10° N
Cosmos 1864 Rocket 4.3 23:07:42 73° SSE 23:08:19 83° E 23:14:42 10° NNE
ATLAS 5 CENTAUR R/B 2.5 23:08:44 10° NW 23:11:22 42° NNW 23:11:22 42° NNW
Okean 2 Rocket 3.7 23:14:37 56° N 23:14:37 56° N 23:18:12 10° N
Cosmos 371 Rocket 4.0 23:10:03 10° NNW 23:13:49 46° WNW 23:13:49 46° WNW
SL-08 R/B 4.4 23:14:22 66° ESE 23:14:48 69° E 23:20:58 10° NNE
CZ-2C R/B 3.3 23:13:16 10° NNE 23:17:51 57° E 23:17:51 57° E
Cosmos 407 Rocket 4.3 23:14:05 10° NW 23:18:08 39° W 23:18:08 39° W
Cosmos 1725 Rocket 3.8 23:18:33 73° S 23:19:14 88° E 23:25:36 10° N
Cosmos 1802 Rocket 3.9 23:19:48 71° SSW 23:20:32 85° W 23:26:53 10° N
ARIANE 6 FM1 Upper Stage 4.4 23:17:08 10° NW 23:20:42 29° NNE 23:21:54 25° NE
Meteor 2-3 Rocket 4.0 23:15:13 10° NNW 23:20:41 55° W 23:20:41 55° W
Cosmos 1892 Rocket 4.2 23:17:47 10° N 23:21:17 55° NNW 23:21:17 55° NNW
Okean 1 Rocket 3.8 23:30:45 48° NNW 23:30:45 48° NNW 23:34:10 10° N
ALOS 2 4.1 23:31:59 28° WNW 23:31:59 28° WNW 23:34:51 10° NNW
Cosmos 1833 Rocket 4.0 23:35:50 27° E 23:35:50 27° E 23:40:05 10° NE
Cosmos 2233 Rocket 3.8 23:38:02 73° S 23:38:43 86° E 23:45:03 10° N
Sich 1 Rocket 4.3 23:39:33 48° NW 23:39:33 48° NW 23:43:08 10° N
ATLAS 3B R/B 3.7 23:31:52 10° NW 23:39:36 53° NNE 23:47:00 10° ESE
PSLV R/B 4.5 23:35:35 10° N 23:38:55 43° NW 23:38:55 43° NW
USA 281 3.9 23:41:47 24° ESE 23:45:35 51° NE 23:51:54 10° NNW
Meteor 1-27 4.1 23:46:47 81° SSE 23:47:04 86° ESE 23:52:53 10° NNE
Cosmos 2151 4.1 23:43:39 10° N 23:47:05 39° NE 23:47:05 39° NE
USA 229 DEB 4.3 23:41:09 10° NW 23:48:18 64° NE 23:56:19 10° ESE
USA 229 4.3 23:41:12 10° NW 23:48:22 63° NE 23:56:23 10° ESE
Cosmos 1656 3.9 23:43:19 10° NW 23:47:59 55° W 23:47:59 55° W
Cosmos 1455 Rocket 3.6 23:49:38 56° NNW 23:49:38 56° NNW 23:53:14 10° N
Landsat 5 4.2 23:46:03 10° NNE 23:49:16 51° NNE 23:49:16 51° NNE
ARGOS Delta rocket 4.3 23:49:58 10° N 23:53:44 49° NW 23:53:44 49° NW
